Location: Ku?niki
(51.4449°N, 17.8974°E)
Time: 13:55:12
(UTC+00:00)

XW-2A - Pass Details

Date: 07 July 2022
Orbit: 395 x 405 km, 97.2° (Epoch: 15 August)

Event Time Altitude Azimuth Distance (km) Brightness Sun altitude
Exits shadow 20:46:27 - 213° (SSW) 2,293 ? -11.0°
Rises 20:46:27 0° 213° (SSW) 2,293 ? -11.0°
Reaches altitude 10° 20:49:27 10° 247° (WSW) 1,444 ? -11.2°
Maximum altitude 20:50:41 12° 270° (W) 1,341 ? -11.3°
Drops below altitude 10° 20:51:55 10° 294° (WNW) 1,450 ? -11.4°
Sets 20:54:58 0° 328° (NNW) 2,319 ? -11.6°
